Погода в Скородумке

Россия / Вологодская область     58°51′51″N   40°01′02″E
темп.,
°C
ветер,
м/с
пор.,
м/с
влажн.,
%
обл.,
%
осадки,
мм/ч
давл.,
гПа
погр.,
м
17 августа, ср
ср1700:00+19юв257267 0.0 1024110
03:00+18юв237744 0.0 102463
06:00+18юв238218 0.0 102480
09:00+23юв345562 0.0 1023477
12:00+26юв344021 0.0 10231484
15:00+27юв343661 0.0 10222213
18:00+25вюв235419 0.0 1021117
21:00+19вюв236729 0.0 102250
18 августа, чт
чт1800:00+18вюв267197 0.0 102299
03:00+18юв267365 0.0 1022121
06:00+17вюв2678100 0.0 1023162
09:00+21юв2666100 0.0 1023338
12:00+26юв34435 0.0 10231759
15:00+27юв34390 0.0 10232255
18:00+24в375098 0.0 1023282
21:00+18вюв37660 0.0 1025122
19 августа, пт
пт1900:00+17вюв38720 0.0 1026152
03:00+15вюв27795 0.0 1027137
06:00+16вюв288544 0.0 1028194
09:00+21вюв475672 0.0 1029606
12:00+24вюв4640100 0.0 10291368
15:00+25юв4632100 0.0 10291607
18:00+22юв364193 0.0 1029252
21:00+16юв2559100 0.0 103080
20 августа, сб
сб2000:00+14юв386473 0.0 1031129
03:00+12вюв39693 0.0 1031155
06:00+12вюв39710 0.0 1031186
09:00+19юв47460 0.0 1031441
12:00+24юв47340 0.0 10301312
15:00+26ююв46250 0.0 10291868
18:00+22вюв3740100 0.0 1028234
21:00+17юв31151100 0.0 1029207
21 августа, вс
вс2100:00+15юв3954100 0.0 1029165
03:00+13юв386479 0.0 1029142
06:00+12юв3969100 0.0 1029179
09:00+19юв485098 0.0 1029381
12:00+24ююв463328 0.0 10281196
15:00+25ююв452898 0.0 10261738
18:00+23вюв3741100 0.0 1025254
21:00+17юв31151100 0.0 1026226